EHI
1 2 4 7 10 10 6 3 3 3 3 1 0 0 0 0 0 0 0 0 0 0 0 0 0 0 0 1 2 2 2 2 1 0 0 0 0 0 0 0 0 0 0
1 2 3 4 8 9 6 3 3 3 3 2 1 0 0 0 0 0 0 0 0 0 0 0 0 0 0 0 1 1 1 2 1 0 0 0 0 0 0 0 0 0 0
2 2 2 2 5 6 5 3 3 3 2 2 1 0 0 0 0 0 0 0 0 0 0 0 0 0 0 0 0 0 0 1 1 0 0 0 0 0 0 0 0 0 0
1 2 1 2 4 4 4 3 2 1 1 1 1 0 0 0 0 0 0 0 0 0 0 0 0 0 0 0 0 0 0 0 0 0 0 0 0 0 0 0 0 0 0
0 0 1 2 3 4 4 2 1 0 0 0 0 0 0 0 0 0 0 0 0 0 0 0 0 0 0 0 0 0 0 0 0 0 0 0 0 0 0 0 0 0 0
0 0 0 1 2 4 4 3 1 0 0 1 1 1 0 0 0 0 0 0 0 0 0 0 0 0 0 0 0 0 0 0 0 0 0 0 0 0 0 0 0 0 0
1 1 0 0 1 3 4 4 3 1 1 1 2 1 0 0 0 0 0 0 0 0 0 0 0 0 0 0 0 0 0 0 0 0 0 0 0 0 0 0 0 0 0
0 0 0 0 0 2 4 5 5 3 2 2 1 1 0 0 0 0 0 0 0 0 1 1 1 1 0 0 0 0 0 0 0 0 0 0 0 0 0 0 0 0 0
0 0 0 0 0 1 2 4 4 4 3 3 2 1 0 0 0 0 0 0 0 0 1 2 2 1 0 0 0 0 0 0 0 0 0 0 1 1 1 0 0 0 0
0 0 1 2 1 0 1 1 3 3 3 3 3 2 0 0 0 0 0 0 0 0 0 1 1 1 0 0 0 0 0 0 0 0 0 0 1 2 1 0 0 0 0
0 0 2 3 2 1 0 0 1 2 3 3 3 1 0 0 0 0 0 0 0 0 0 0 0 0 0 0 0 0 0 0 0 0 0 0 1 2 2 0 0 0 0
0 0 2 3 3 2 1 0 0 1 2 2 2 1 0 0 0 0 0 0 0 0 0 0 0 0 0 0 0 0 0 0 0 0 0 0 1 1 1 0 0 0 0
0 1 2 3 3 3 1 1 0 0 1 1 1 0 0 0 0 0 0 0 0 0 0 0 0 0 0 0 0 0 0 0 0 0 0 0 0 0 0 0 0 0 0
0 1 2 3 3 3 3 2 1 1 1 0 0 0 0 1 1 1 0 0 0 0 0 0 0 0 0 0 0 0 0 0 0 0 0 0 0 0 0 0 0 0 0
0 0 1 2 3 3 3 3 3 2 2 2 2 1 1 2 2 2 1 0 0 0 0 0 0 0 0 0 0 0 0 0 0 0 0 0 0 0 0 0 0 0 0
0 0 0 1 2 3 3 3 3 3 3 3 4 3 2 3 3 3 2 1 0 0 0 0 0 0 0 0 0 0 0 0 0 0 0 0 0 0 0 0 0 0 0
0 0 0 0 1 1 2 3 3 3 3 4 5 4 2 2 3 3 3 1 0 0 0 0 0 0 0 0 0 0 0 0 0 0 0 0 0 0 0 0 0 0 0
0 0 0 0 0 0 1 2 3 3 3 4 5 5 3 1 2 3 3 2 1 1 1 1 0 0 0 0 0 0 0 0 0 0 0 0 0 0 0 0 0 0 0
0 0 0 0 0 0 0 1 1 2 2 3 5 5 3 2 2 2 2 2 2 2 2 2 1 0 0 0 0 0 0 0 0 0 0 0 0 0 0 0 0 0 0
0 0 0 0 0 0 0 0 0 1 1 2 3 4 3 2 2 1 1 1 2 3 3 3 1 0 0 0 0 0 0 0 0 0 0 0 0 0 0 0 0 0 0
0 0 0 0 0 0 0 0 0 0 0 1 2 3 1 1 1 1 1 1 2 3 3 3 2 1 0 0 0 0 0 0 0 0 0 0 0 0 0 0 0 0 0
0 0 0 0 0 0 0 0 0 0 0 1 3 2 1 0 0 1 2 1 1 2 2 2 2 1 0 0 0 0 0 0 0 0 0 0 0 0 0 0 0 0 0
0 0 0 0 0 0 0 0 0 0 0 2 3 2 1 0 0 1 2 2 1 1 1 1 1 1 0 0 0 0 0 0 0 0 0 0 0 0 0 0 0 0 0
0 0 0 0 0 0 0 0 0 0 0 1 2 1 0 0 0 1 2 3 3 2 1 0 0 0 0 0 0 0 0 0 0 0 0 0 0 0 0 0 0 0 0
0 0 0 0 0 0 0 0 0 0 0 0 0 0 0 0 0 0 1 2 2 2 1 0 0 0 0 0 0 0 0 0 0 0 0 0 0 0 0 0 0 0 0
0 0 0 0 0 0 0 0 0 0 0 0 0 0 0 0 0 0 0 1 1 1 0 0 0 0 0 0 0 0 0 0 0 0 0 0 0 0 0 0 0 0 0
Wind_Speed
3 3 3 3 5 6 7 7 8 8 9 9 8 8 9 9 10 10 10 10 10 11 12 12 13 13 13 13 13 13 13 13 13 13 13 13 13 14 13 12 11 10 14
3 4 3 4 6 7 7 8 8 8 8 8 8 8 9 9 9 10 10 10 10 11 11 12 12 12 12 13 13 13 12 12 11 11 11 10 11 12 13 12 11 9 14
4 4 4 5 6 7 7 7 8 8 8 8 8 8 9 9 9 9 10 10 10 11 11 11 12 12 12 12 12 11 10 9 9 8 8 6 8 12 13 12 13 13 13
4 5 4 5 6 6 7 7 7 8 8 8 8 8 8 9 9 9 10 10 10 11 11 11 11 11 12 11 10 10 9 8 7 7 5 5 6 12 13 13 13 13 13
5 5 4 6 6 6 6 6 7 8 8 8 8 8 8 8 9 9 10 10 10 10 10 11 11 11 11 11 10 9 9 8 8 7 5 6 6 11 13 12 12 13 13
6 5 5 6 6 7 6 6 7 8 8 8 8 8 8 8 8 9 9 10 10 10 10 10 10 10 10 10 9 9 9 8 7 5 6 6 5 10 12 12 12 12 12
6 5 5 6 6 6 6 6 7 7 8 8 8 8 7 8 8 8 9 9 9 10 10 10 10 10 10 9 8 8 8 8 5 5 6 6 6 11 12 12 12 12 12
5 5 5 6 6 6 6 6 6 6 7 7 7 7 7 7 8 8 8 8 9 9 9 9 10 9 9 9 8 7 8 7 6 6 6 5 9 11 12 11 11 11 11
5 5 4 4 4 5 6 6 6 6 6 7 7 7 7 7 8 8 8 8 8 9 9 9 9 9 9 8 7 7 7 7 5 4 6 4 9 11 11 11 10 10 10
4 5 4 4 3 3 3 4 5 5 6 6 6 6 6 6 7 8 7 8 7 8 8 8 8 8 8 8 7 7 7 5 5 5 3 5 9 10 10 9 9 10 10
4 4 4 4 4 3 3 3 3 4 5 5 4 5 4 3 3 4 6 7 7 7 7 6 6 7 6 6 5 5 5 2 4 4 3 6 8 9 9 9 9 8 9
3 3 3 3 3 3 3 2 1 1 2 2 2 2 2 2 2 4 5 6 6 6 5 5 5 4 3 2 2 4 2 3 3 3 4 7 8 8 9 9 8 8 8
2 3 4 3 3 3 2 2 1 1 1 1 2 2 2 2 2 2 2 2 2 3 2 2 2 2 2 2 2 2 2 2 2 3 3 6 7 7 8 8 7 7 7
2 3 3 3 3 3 2 2 1 0 1 1 2 2 2 2 2 2 1 1 2 1 1 1 1 2 2 2 2 2 3 2 2 2 3 6 6 6 7 7 7 6 6
3 3 3 3 3 3 3 2 2 1 1 1 1 1 2 2 2 2 1 2 2 1 1 1 1 2 2 2 2 2 3 3 3 3 2 5 6 6 6 6 6 5 5
2 2 2 3 3 2 2 2 2 2 1 2 2 2 2 2 2 2 2 2 2 1 1 1 1 1 2 2 2 3 3 3 3 3 2 3 5 5 5 5 5 5 5
2 2 2 2 3 3 2 2 2 2 1 1 1 2 2 2 2 2 2 2 1 1 1 1 2 2 2 2 2 2 2 3 3 3 3 2 2 4 5 4 4 4 4
2 2 2 2 3 3 2 2 1 2 1 1 1 2 2 2 1 2 2 1 1 1 1 1 1 2 1 1 1 2 2 2 2 2 2 2 2 2 3 4 4 4 4
2 2 2 2 2 2 2 2 2 2 1 1 2 2 2 2 2 2 2 1 1 2 2 1 1 1 1 1 1 1 1 1 1 2 2 2 2 2 2 3 4 3 3
2 2 1 1 1 1 1 1 1 1 0 1 2 2 2 2 2 2 2 2 2 2 2 1 1 1 1 1 1 2 1 1 1 1 1 1 2 2 2 2 2 2 3
2 2 1 1 1 0 0 1 1 1 0 1 1 2 2 2 2 2 2 2 2 2 2 2 2 2 1 1 2 1 1 1 1 1 1 1 1 1 1 2 2 1 1
1 1 1 1 1 1 0 0 0 1 1 1 2 2 2 2 1 2 2 2 2 2 2 2 2 1 1 1 1 2 0 1 1 1 0 1 1 1 1 1 1 1 1
1 1 1 0 0 1 0 1 1 1 1 1 2 2 1 2 2 1 2 2 2 2 2 2 2 2 2 0 1 2 2 2 0 0 0 0 0 0 0 0 1 1 1
1 1 1 1 1 1 0 1 1 2 2 2 2 2 2 2 2 2 2 2 2 1 2 2 1 1 3 2 1 0 1 2 2 1 1 0 0 0 0 0 0 0 0
0 0 1 0 0 0 0 1 2 2 2 1 2 2 2 2 2 2 2 2 2 2 2 2 2 1 1 2 2 1 1 0 1 2 2 1 1 1 1 1 1 1 1
0 0 0 1 1 0 1 2 3 3 2 2 3 3 2 2 1 2 2 2 2 2 2 2 2 2 2 2 1 2 2 1 2 1 2 2 2 2 2 1 1 2 1
Wind_Direction
60 71 61 42 66 80 85 87 91 92 90 89 85 82 81 79 78 79 76 75 77 76 78 78 77 76 74 73 72 72 71 70 70 70 69 70 75 78 78 77 78 80 83
80 94 70 52 68 78 85 89 90 92 89 87 85 84 82 82 78 77 76 75 77 77 78 79 78 77 75 74 73 72 72 72 70 70 69 67 73 77 78 74 79 86 87
69 98 86 60 70 79 84 88 89 91 93 90 88 86 83 84 79 76 75 73 74 76 78 79 78 76 76 74 72 71 69 68 67 68 70 69 73 78 81 79 82 87 89
58 92 85 69 72 77 83 90 94 91 92 91 87 84 84 84 83 79 75 73 73 73 76 77 77 76 75 75 73 70 64 53 54 61 66 68 72 80 80 81 83 86 90
51 68 78 73 76 78 83 89 95 93 90 89 87 83 82 83 83 82 79 76 76 76 76 76 75 75 73 73 70 66 56 43 41 54 59 63 65 79 79 81 83 85 88
50 57 67 63 72 78 82 89 96 96 94 90 87 84 82 81 79 79 80 79 77 78 78 76 76 76 73 71 68 62 51 39 38 50 56 59 63 77 81 82 84 85 87
52 50 61 57 68 77 83 87 91 95 94 92 88 85 84 83 80 79 80 81 82 82 81 78 77 77 73 70 65 57 46 38 53 55 58 56 68 79 82 83 85 86 88
58 55 55 53 55 63 69 83 89 93 94 93 90 85 81 81 80 80 80 81 84 84 83 80 77 74 72 67 58 49 43 40 60 66 63 59 71 78 80 82 82 85 87
53 54 52 50 47 50 56 71 81 88 90 90 89 85 82 82 82 80 77 78 81 83 82 80 78 75 71 65 53 40 36 36 55 61 68 63 71 74 76 80 81 85 88
54 50 42 42 45 42 48 58 75 78 81 85 82 81 80 81 84 81 75 74 78 81 82 81 80 76 70 65 52 37 26 29 60 60 58 71 76 77 76 80 82 83 86
53 50 44 36 32 34 40 59 72 77 74 81 81 78 80 81 88 87 76 74 74 76 78 78 80 75 68 63 48 36 23 40 62 62 58 69 79 82 79 78 81 83 87
35 37 42 44 32 28 31 33 49 83 76 79 73 73 87 82 80 91 84 76 73 70 68 72 72 72 65 64 39 34 27 43 56 60 57 64 76 83 85 84 84 87 89
42 32 31 33 36 34 31 14 11 56 63 68 68 62 68 86 87 89 102 88 81 78 63 67 66 53 55 57 49 43 31 44 56 57 54 64 72 85 90 90 86 88 93
50 37 32 34 34 33 28 18 359 58 88 67 60 61 66 85 77 71 84 90 85 69 62 63 53 41 42 44 58 49 38 49 62 70 59 63 69 82 92 94 92 92 91
59 38 29 27 33 28 24 12 3 6 90 90 72 63 63 86 94 78 75 70 72 73 65 57 67 59 52 44 43 48 51 53 57 70 67 62 65 71 83 87 92 103 103
72 45 34 31 24 31 27 16 359 359 55 86 81 67 69 81 99 102 88 72 57 55 71 75 81 74 64 60 44 37 46 54 58 60 72 64 61 62 69 76 83 94 102
83 62 47 41 25 25 33 17 8 351 32 87 95 81 68 75 93 106 101 86 70 51 52 78 74 70 69 63 57 47 44 50 62 60 59 61 61 58 60 65 70 81 93
93 73 42 38 27 20 29 14 12 354 25 100 97 90 69 62 82 109 107 101 92 89 74 79 89 85 74 67 54 47 47 48 66 71 61 55 53 52 55 57 58 68 77
95 87 60 46 37 21 19 21 22 357 12 92 86 81 67 60 54 94 104 102 87 87 84 72 76 107 106 78 59 56 49 47 61 79 73 65 60 57 61 50 42 50 61
96 100 96 73 56 36 31 23 8 355 37 89 93 88 80 70 62 76 93 94 94 90 81 79 96 88 119 116 78 51 20 26 75 85 94 81 69 62 64 61 44 29 35
107 115 127 124 134 90 29 17 351 318 255 116 105 101 105 91 79 89 95 95 92 101 108 105 110 111 110 116 97 73 354 354 90 69 69 91 75 60 74 75 66 52 21
120 133 177 186 169 159 318 313 243 258 221 160 138 137 127 116 105 105 115 124 118 112 102 103 116 113 97 92 126 142 163 3 7 354 32 76 76 55 67 72 82 71 48
156 175 219 234 178 150 26 8 334 289 192 154 152 154 151 147 134 125 136 137 133 134 138 139 139 133 153 186 121 146 159 191 183 313 75 91 81 60 23 29 95 78 63
210 182 195 204 178 185 172 224 257 253 224 202 177 168 164 170 166 159 156 150 151 145 146 158 138 148 155 182 224 266 180 153 158 184 289 245 135 288 266 314 286 219 178
249 200 200 218 221 2 329 255 246 245 235 188 164 171 178 175 174 167 160 157 164 168 168 162 156 173 177 184 192 203 232 146 144 168 214 231 273 265 255 238 219 227 223
333 353 277 228 242 274 278 265 249 243 223 197 194 193 192 186 191 183 174 173 181 184 187 183 181 188 192 197 209 194 191 186 180 177 203 214 235 252 255 243 222 221 210